Location: Azul
(36.7830°S, 59.8500°W)
Time: 19:28:40
(UTC-03:00)

ISS - Pass Details

Date: 09 August 2020
Orbit: 418 x 420 km, 51.6° (Epoch: 08 August)

Event Time Altitude Azimuth Distance (km) Brightness Sun altitude
Exits shadow 05:24:29 13° 132° (SE) 1,376 -0.6 -29.3°
Drops below altitude 10° 05:25:14 10° 120° (ESE) 1,523 -0.2 -29.1°
Sets 05:28:03 0° 95° (E) 2,383 1.3 -28.6°
